Location: Battersea Observatory
(44.4318°N, 76.3841°W)
Time: 08:32:32
(UTC-05:00)

ISS - Pass Details

Date: 01 December 2021
Orbit: 413 x 422 km, 51.6° (Epoch: 24 January)

Event Time Altitude Azimuth Distance (km) Brightness Sun altitude
Rises 17:12:49 0° 293° (WNW) 2,384 0.8 -8.1°
Reaches altitude 10° 17:15:13 10° 308° (NW) 1,516 -0.5 -8.5°
Maximum altitude 17:18:02 24° 5° (N) 932 -2.2 -9.0°
Enters shadow 17:20:22 13° 55° (NE) 1,350 -1.8 -9.3°
